CZ-6A DEB, 56262

Orbit data source: Space-Track

CZ-6A DEB, 56262 is space debris in SSO originally from a launch on Fri, 11 Nov 2022 UTC launched from the Taiyaun Space Center, China (TSC). Debris objects in space refer to the collection of defunct objects orbiting the Earth. Examples of debris include non-operational satellites, rocket bodies, and fragments generated from explosions, collisions, or faulty payload assembly.

Loading next visibility...
Identifier
56262, 2022-151ACE
Orbit
SSO
Country
Flag of CNCN / PRC
Related business
Manufacturer
SAST
Mission
Spacecraft
Bus & Motor
Unknown
Mass
Unknown
Launch date (UTC)
2022-11-11 (4 years ago)
Launch vehicle
Unknown
Launch site
Taiyaun Space Center, China (TSC)
Object type
Payload
Rocket body
Debris
Shape & HBR
Unknown shape, 0.1 m
Radar Cross Section
Medium (>0.1 m² and <1 m²)

Expand to show TLE details & history
Last TLE update: 3 days ago

TLE from 3 days ago
0 CZ-6A DEB
1 56262U 22151ACE 26170.43348720  .00001365  00000-0  69733-3 0  9995
2 56262  98.8361 177.8729 0043323 294.5678  65.0985 14.16838284173521
Epoch: 2026-06-19T10:24Z
TLE epoch observation values (Epoch: 2026-06-19T10:24:13.294Z)
Latitude
0.00006°
Longitude
114.15497°
Altitude
825.921 km
Speed
7.447 km/s
True Right ascension
11h 51m 29s
True Declination
0° 00' 00"
Sunlit
Object was in daylight at epoch
Visualization orbit readout
Latitude
Unknown
Longitude
Unknown
Altitude
Unknown
Speed
Unknown
Apparent Right ascension
Unknown
Apparent Declination
Unknown
Sunlit
N/A
Visualization observer readout
Local Sidereal Time
21:36:50
Azimuth
Unknown
Elevation
Unknown
Doppler factor
Unknown
Orbital elements
Apogee altitude
864.476 km
Perigee altitude
801.992 km
Semi-major axis
7,211.371 km
Eccentricity
0.00433
Inclination
98.8361°
RAAN
177.8729°
Arg. of periapsis
294.5678°
True anomaly
65.54982°
Mean anomaly
65.0985°
Eccentric anomaly
65.32406°
Mean motion
3.54419 °/min
Orbital period
101.57 mins
BSTAR
0.00069733
Loading maneuver chart data...
Computing Atmospheric mass density...
Loading historical data...
Loading historical data...
Loading historical data...
Loading historical data...
Loading historical data...
Loading historical data...
Loading historical data...

Documentation

Showing up to 5 results
|